Flag for United Kingdom Weather past 2 weeks in Portsmouth, England, United Kingdom

Now
66 °F

Scattered clouds.


Feels Like: 66 °F
Forecast: 58 / 66 °F
Wind: 6 mph from West

Location: Southampton / Weather Centre

Current Time: Jul 7, 2015 at 4:33:13 PM

Latest Report: Jul 7, 2015 at 4:20 PM


Visibility: N/A

Pressure: 29.77 "Hg

Humidity: 68%

Dew point: 55 °F

Location of PortsmouthLocation

Historic Weather in Portsmouth — Graph

°F

Portsmouth temperature yesterday

Maximum temperature yesterday: 68 °F (at 1:20 PM)
Minimum temperature yesterday: 48 °F (at 5:50 AM)
Average temperature yesterday: 63 °F

Past Weeks' High & Low Weather Summary

 TemperatureHumidityPressure
High82 °F (Jul 1, 2:20 PM)94% (Jun 24, 5:50 AM)30.30 "Hg (Jun 24, 5:50 AM)
Low46 °F (Jun 25, 5:50 AM)39% (Jun 30, 5:20 PM)29.77 "Hg (Jul 7, 2:50 PM)
Average65 °F65%30.07 "Hg
* Reported Jun 22 3:20 PM — Jul 7 3:20 PM, Portsmouth, Weather by CustomWeather, © 2015

Note: Actual official high and low records may vary slightly from our data, if they occured in-between our weather recording intervals... More about our weather records

Advertising

Portsmouth weather history for previous 24 hours

 ConditionsComfort  
Time TempWeatherWind HumidityBarometerVisibility
3:20 PM
Tue, Jul 7
66 °FScattered showers. Scattered clouds.7 mph52%29.77 "HgN/A
2:50 PM66 °FScattered clouds.9 mph56%29.77 "HgN/A
2:20 PM66 °FScattered clouds.9 mph56%29.80 "HgN/A
1:50 PM68 °FScattered clouds.12 mph56%29.80 "HgN/A
1:20 PM66 °FScattered showers. Scattered clouds.9 mph60%29.80 "HgN/A
12:50 PM68 °FScattered showers. Partly sunny.17 mph60%29.80 "HgN/A
12:20 PM68 °FPartly sunny.14 mph64%29.80 "HgN/A
11:50 AM64 °FPartly sunny.14 mph78%29.80 "HgN/A
11:20 AM63 °FPartly sunny.12 mph88%29.80 "HgN/A
10:50 AM63 °FSprinkles. Partly sunny.15 mph77%29.80 "Hg6 mi
10:20 AM64 °FPartly sunny.15 mph78%29.80 "HgN/A
9:50 AM63 °FScattered showers. Partly sunny.10 mph83%29.80 "HgN/A
9:20 AM63 °FScattered showers. Partly sunny.9 mph88%29.80 "HgN/A
8:50 AM61 °FBroken clouds.8 mph88%29.80 "Hg3 mi
8:20 AM61 °FDrizzle. Partly sunny.12 mph88%29.83 "Hg3 mi
7:50 AM61 °FDrizzle. Partly sunny.12 mph88%29.83 "Hg5 mi
7:20 AM61 °FDrizzle. Partly sunny.6 mph88%29.80 "Hg5 mi
6:50 AM61 °FDrizzle. Partly sunny.8 mph88%29.83 "Hg3 mi
6:20 AM61 °FSprinkles. Partly sunny.5 mph77%29.86 "HgN/A
5:50 AM61 °FPassing clouds.3 mph77%29.86 "HgN/A
9:50 PM
Mon, Jul 6
61 °FSunny.No wind72%30.01 "Hg10 mi
9:20 PM61 °FSunny.No wind68%30.01 "Hg10 mi
8:50 PM63 °FSunny.No wind59%30.01 "Hg10 mi
8:20 PM64 °FSunny.2 mph56%30.01 "Hg10 mi
7:50 PM64 °FSunny.3 mph60%30.01 "Hg10 mi
7:20 PM66 °FPassing clouds.5 mph52%30.01 "HgN/A
6:50 PM66 °FSunny.3 mph52%30.01 "Hg10 mi
6:20 PM66 °FPassing clouds.6 mph52%30.01 "HgN/A
5:50 PM68 °FPassing clouds.7 mph49%30.04 "HgN/A
5:20 PM68 °FPassing clouds.8 mph46%30.04 "HgN/A
4:50 PM68 °FPassing clouds.7 mph53%30.07 "HgN/A
4:20 PM66 °FPassing clouds.8 mph52%30.07 "HgN/A
Weather by CustomWeather, © 2015

See weather overviewHow to use our weather pages